Вернуться в каталог

STARLINK-37233

АктивенСвязьVLEO
NORAD 68562·PAYLOAD·🇺🇸 United States

Запущен Apr 2, 2026 с Cape Canaveral Space Force Station

Loading…

Ближайшие Пролёты (ближайшие 24 часа)

TLE

СвежийSource: CelesTrak SupGP

Эпоха: Sep 14, 2026, 21:32 UTC

1 68562C 26070W   26257.89770833  .00015906  00000+0  46983-3 0  2579
2 68562  53.1583 199.6333 0001244  91.4488 163.5344 15.34391747    14

Отслеживайте STARLINK-37233 в реальном времени с AllMySat

Download on the App Store